AirNav   TITAN Aviation Fuels
 
 1612 users online  

21KY Lincoln Farm Airport
Hodgenville, Kentucky, USA

GOING TO HODGENVILLE?


FAA INFORMATION EFFECTIVE 30 DECEMBER 2021

Location

FAA Identifier: 21KY
Lat/Long: 37-32-15.2170N 085-44-14.8580W
37-32.253617N 085-44.247633W
37.5375603,-85.7374606
(estimated)
Elevation: 780 ft. / 238 m (estimated)
Variation: 02W (1985)
From city: 2 miles S of HODGENVILLE, KY
Time zone: UTC -5 (UTC -4 during Daylight Saving Time)
Zip code: 42748

Airport Operations

Airport use: Private use. Permission required prior to landing
Activation date: 08/1988
Control tower: no
ARTCC: INDIANAPOLIS CENTER
FSS: LOUISVILLE FLIGHT SERVICE STATION
Attendance: UNATNDD
Segmented circle: no

Airport Communications

WX AWOS-3 at EKX (13 nm NW): 121.025 (270-763-6433)

Nearby radio navigation aids

VOR radial/distance  VOR name  Freq  Var
EWOr206/6.4NEW HOPE VOR/DME110.8001E
FTKr154/24.8FORT KNOX VOR/DME109.6001W
MYSr133/(32.2)MYSTIC VOR108.2001W
IIUr192/34.8LOUISVILLE VORTAC114.8001E

 
NDB name  Hdg/Dist  Freq  Var  ID
GODMAN159/27.739603WGOI --. --- ..

Airport Services

Runway Information

Runway 3/21

Dimensions: 1700 x 60 ft. / 518 x 18 m
Surface: turf
RUNWAY 3  RUNWAY 21
Traffic pattern: leftleft

Airport Ownership and Management from official FAA records

Ownership: Privately-owned
Owner: JOEL RAY SPROWLS
2579 LINCOLN FARM RD
HODGENVILLE, KY 42748
Phone 502-358-3545

Additional Remarks

FOR CD CTC INDIANAPOLIS ARTCC AT 317-247-2411.

Instrument Procedures

There are no published instrument procedures at 21KY.

Some nearby airports with instrument procedures:

KEKX - Addington Field Airport (13 nm NW)
KBRY - Samuels Field Airport (20 nm NE)
KAAS - Taylor County Airport (23 nm SE)
6I2 - Lebanon Springfield Airport-George Hoerter Field (24 nm E)
KFTK - Godman Army Airfield (25 nm NW)
 
Loc | Ops | Rwys | IFR | FBO | Links
Com | Nav | Svcs | Stats | Notes
Area around 21KY (Lincoln Farm Airport)
 
Road maps at: MapQuest Bing Google
 
Aerial photo
WARNING: Photo may not be current or correct
Aerial photo of 21KY (Lincoln Farm Airport)
Do you have a better or more recent aerial photo of Lincoln Farm Airport that you would like to share? If so, please send us your photo.

 
Sectional chart

 
Airport distance calculator
Flying to Lincoln Farm Airport? Find the distance to fly.

From to 21KY

Sunrise and sunset
Times for 20-Jan-2022
 Local
(UTC-5)
 Zulu
(UTC)
Morning civil twilight07:2712:27
Sunrise07:5612:56
Sunset17:5322:53
Evening civil twilight18:2123:21

Current date and time
Zulu (UTC)  20-Jan-2022 22:59:03
Local (UTC-5)  20-Jan-2022 17:59:03
 
METAR
KEKX 
12nm NW 
202255Z AUTO 02006KT 10SM OVC038 M04/M11 A3043 RMK AO2 T10451114
KBRY 
20nm NE 
202255Z AUTO 36008KT 10SM BKN041 M04/M11 A3042 RMK AO1
KAAS 
23nm SE 
202235Z AUTO 00000KT 10SM OVC034 M02/M08 A3043 RMK AO1
KFTK 
23nm NW 
202206Z AUTO 35009KT 10SM BKN025 OVC032 M04/M12 A3042 RMK AO2 CIG 024V030 SLP315 FZRANO $
K6I2 
24nm E 
202235Z AUTO 35008KT 10SM BKN039 M04/M09 A3040 RMK AO2
TAF
KFTK 
23nm NW 
202000Z 2020/2202 01010KT 9999 SCT015 BKN025 QNH3038INS TEMPO 2020/2023 36010G15KT 6000 -SN BKN015 OVC020 610154 BECMG 2023/2024 35008KT 9999 SCT020 BKN200 QNH3042INS TXM02/2020Z TNM09/2112Z LAST NO AMDS AFT 2104 NEXT 2112
NOTAMs
Click for the latest NOTAMs
NOTAMs are issued by the DoD/FAA and will open in a separate window not controlled by AirNav.

 

 
 

Would you like to see your business listed on this page?

 If your business provides an interesting product or service to pilots, flight crews, aircraft, or users of the Lincoln Farm Airport, you should consider listing it here.  To start the listing process, click on the button below
 
Add a business
 

Other Pages about Lincoln Farm Airport

Update a link
 
Copyright © AirNav, LLC. All rights reserved. Privacy Policy  Contact